TIME,DELAY(SENSOR),PRES,OXYGEN,RAWTEMP,T(OPTODE),TCPHASE,FLUOR,BETA(BETA700),BETA(BETA412),BETA(BETA440),CDOM,C(CSC),ED(ED411.90),ED(ED443.80),ED(ED489.40),ED(ED554.70),LU(LU412.20),LU(LU443.80),LU(LU489.40),LU(LU555.00),COMP,TILTX,TILTY,CHECK
1354572182,5807,838.3099975585938000,163.4568023681640600,429.7336120605469000,9.6944198608398440,39.1951217651367200,52,106,54,54,60,13100,2146959058,2147514313,2147283858,2147502756,2147089526,2146931620,2147706934,2147124333,342,-1,9,59519
1354575778,5806,955.4299926757812000,194.1772003173828000,498.6151123046875000,7.5724530220031740,38.2393989562988300,51,103,55,54,59,13099,2146963245,2147514002,2147295862,2147518372,2147090916,2146926326,2147718061,2147121444,2589,-1,8,28610
1354579378,5804,972.3900146484375000,204.2469940185547000,506.2361145019531000,7.3358931541442870,37.7489089965820300,52,97,54,52,61,13099,2146965101,2147511890,2147295040,2147520100,2147094125,2146922294,2147720640,2147123766,3515,-1,9,37360
1354582978,5807,978.1300048828125000,206.0895996093750000,508.0338134765625000,7.2800369262695310,37.6688919067382800,51,103,54,53,61,13101,2146963501,2147518409,2147297746,2147520009,2147094409,2146914770,2147722240,2147124105,331,-1,8,5034
1354586578,5806,974.5900268554688000,210.5950012207031200,511.7926940917969000,7.1631660461425780,37.4681510925293000,52,104,54,54,60,13099,2146962825,2147517824,2147297005,2147520768,2147090596,2146924288,2147725888,2147121252,362,0,8,13562
1354590178,5806,974.8599853515625000,212.7523040771484400,515.3186035156250000,7.0534510612487790,37.4046897888183600,52,99,53,54,60,13095,2146963584,2147518793,2147297709,2147521005,2147091510,2146923794,2147727012,2147121874,2975,-1,8,63975
1354593778,5806,981.0300292968750000,213.6378021240234400,514.1231079101562000,7.0906610488891600,37.3326301574707000,52,101,53,53,60,13093,2146960960,2147517613,2147295716,2147519890,2147090404,2146923145,2147726473,2147122715,1088,-1,8,38509
1354597378,5808,982.9000244140625000,213.8385925292968800,514.3281860351562000,7.0842771530151370,37.3243103027343750,52,101,54,53,61,13089,2146962285,2147516781,2147293586,2147521389,2147090989,2146927533,2147724964,2147125732,866,-1,8,64391
1354600978,5805,985.7199707031250000,212.2808074951172000,514.1339721679688000,7.0903210639953610,37.4119606018066400,52,101,53,54,61,13024,2146962486,2147516626,2147297856,2147520246,2147089654,2146924964,2147719908,2147120649,2887,-1,8,60031
1354604578,5805,986.4000244140625000,211.3966064453125000,514.1973876953125000,7.0883469581604000,37.4640502929687500,52,100,54,54,60,13026,2146963373,2147514148,2147296009,2147517385,2147091245,2146918957,2147722240,2147122294,3130,-1,9,63456
1354608178,5807,990.6900024414062000,212.4481964111328000,513.4661254882812000,7.1111068725585940,37.3901710510253900,51,106,55,54,59,13017,2146962496,2147516736,2147295515,2147521307,2147089380,2146926235,2147725211,2147121901,191,-1,9,53779
1354611778,5809,990.5399780273438000,212.4550018310547000,513.8099975585938000,7.1004052162170410,37.3954582214355500,51,100,55,54,60,13020,2146960640,2147516224,2147292004,2147519872,2147087808,2146924132,2147724050,2147125403,10,-1,8,5214
1354615378,5807,989.0000000000000000,211.9976043701172000,514.8527832031250000,7.0679488182067870,37.4404716491699200,52,101,53,55,61,13019,2146960448,2147516306,2147297947,2147520347,2147089280,2146924864,2147722578,2147121737,531,-1,8,18920
1354618978,5805,988.5999755859375000,213.1396942138672000,514.9619140625000000,7.0645561218261720,37.3756713867187500,52,100,53,53,60,13011,2146959250,2147523081,2147298157,2147520018,2147089782,2146921938,2147724059,2147125184,273,-1,8,38274
1354622578,5807,987.0499877929688000,214.5877075195312500,516.7883300781250000,7.0076951980590820,37.3252716064453100,51,99,53,52,60,13012,2146959305,2147518454,2147295689,2147520411,2147090852,2146920978,2147722240,2147119771,735,-1,8,19567
1354626178,5807,986.6400146484375000,214.8397064208984400,517.1766967773438000,6.9955978393554690,37.3176803588867200,52,101,55,53,61,13013,2146962313,2147517110,2147294299,2147518409,2147091501,2146925961,2147723136,2147120804,758,-1,8,24735
1354629778,5806,985.8099975585938000,214.0437011718750000,518.5750122070312000,6.9520449638366700,37.3880310058593750,52,100,54,54,60,13017,2146960585,2147517220,2147296091,2147519323,2147090130,2146923428,2147722678,2147119634,296,-1,8,32095
1354633378,5806,989.4199829101562000,214.5455017089843800,518.2169189453125000,6.9632019996643070,37.3526496887207000,51,100,54,53,60,13014,2146960713,2147517449,2147294262,2147522843,2147092013,2146922194,2147720978,2147121106,3390,-1,8,32023
1354636978,5805,992.9600219726562000,214.1069946289062500,516.2094726562500000,7.0257148742675780,37.3426589965820300,51,99,53,53,60,13010,2146956845,2147516233,2147298121,2147519076,2147090322,2146923291,2147726290,2147120128,3430,-1,8,28947
1354640578,5807,991.5900268554688000,213.3034973144531200,515.7003173828125000,7.0415692329406740,37.3800010681152340,52,102,53,53,60,13011,2146960128,2147517065,2147293092,2147518610,2147088521,2146922084,2147719369,2147122304,56,-1,8,45673
1354644178,5806,999.4500122070312000,212.1896972656250000,513.4074707031250000,7.1129279136657715,37.4038085937500000,52,102,54,54,60,13014,2146959817,2147514944,2147296521,2147517211,2147089792,2146917019,2147723062,2147123008,3243,-1,8,29611
1354647778,5803,996.1699829101562000,213.1199951171875000,514.7265014648438000,7.0718808174133300,37.3733291625976560,53,101,53,54,60,13000,2146960320,2147518646,2147294336,2147519789,2147088704,2146921216,2147719616,2147121234,3440,-1,9,42958
1354651378,5807,988.5000000000000000,212.0411071777343800,516.1762084960938000,7.0267519950866700,37.4614410400390600,52,102,53,54,60,12998,2146963136,2147516544,2147296082,2147518738,2147088768,2146924086,2147723236,2147121773,17,-1,8,47968
1354654978,5808,985.5000000000000000,213.3334960937500000,518.4896850585938000,6.9547028541564940,37.4275703430175800,51,102,54,53,59,12845,2146961773,2147516973,2147294217,2147519542,2147088996,2146918656,2147724580,2147122450,403,-1,8,9562
1354658578,5808,988.8499755859375000,214.3428955078125000,518.1442871093750000,6.9654607772827150,37.3632698059082000,51,100,54,52,61,12846,2146959515,2147518253,2147294043,2147519341,2147089728,2146917824,2147723236,2147121197,252,-1,8,8489
1354662178,5808,989.1300048828125000,212.9244995117187500,518.4611206054688000,6.9555931091308590,37.4500389099121100,52,102,55,53,60,12847,2146962395,2147517952,2147296603,2147519561,2147090468,2146922962,2147725193,2147120987,385,-1,8,492
1354665778,5809,985.7999877929688000,213.0581970214843800,519.0792846679688000,6.9363341331481930,37.4535484313964840,52,101,53,53,60,12842,2146960411,2147515053,2147294994,2147522313,2147089270,2146920301,2147722486,2147124342,73,-1,8,5807
1354669378,5805,985.7000122070312000,214.7633972167968800,519.7764282226562000,6.9146161079406740,37.3681793212890600,53,103,54,54,61,12840,2146961718,2147519396,2147296987,2147518454,2147091904,2146922523,2147722505,2147119808,3314,-1,9,35528
1354672978,5808,989.2899780273438000,215.6589965820312500,519.7249755859375000,6.9162158966064450,37.3160591125488300,52,100,55,52,60,12834,2146958820,2147516278,2147293458,2147517906,2147093101,2146922880,2147723776,2147122560,3466,-1,9,36727
1354676578,5806,991.6400146484375000,215.6307067871093800,519.1697998046875000,6.9335160255432130,37.3077812194824200,51,100,53,53,59,12843,2146962249,2147518025,2147299492,2147519058,2147089426,2146921517,2147723062,2147121380,205,-1,8,29819
1354680178,5803,992.4000244140625000,216.9391021728515600,518.6008911132812000,6.9512391090393070,37.2226715087890600,52,101,53,53,59,12827,2146962971,2147515949,2147293961,2147517842,2147089005,2146922276,2147721700,2147123328,2935,-1,9,29231
1354683778,5804,990.8400268554688000,216.7469024658203000,518.8515014648438000,6.9434318542480470,37.2380599975585940,52,99,53,53,59,12836,2146962724,2147518180,2147295853,2147519817,2147091465,2146918930,2147723328,2147120813,3076,-1,8,5316
1354687378,5807,994.5700073242188000,216.4689025878906200,517.6079711914062000,6.9821667671203610,37.2319602966308600,51,99,54,53,60,12837,2146960329,2147516269,2147294308,2147522221,2147090889,2146921645,2147723062,2147118537,2907,-1,8,23124
1354690978,5808,995.1199951171875000,215.0959014892578000,516.7291259765625000,7.0095357894897460,37.2944297790527340,52,101,53,53,60,12837,2146959616,2147518171,2147296896,2147519808,2147090413,2146920118,2147725321,2147120896,74,-1,8,24600
1354694578,5803,993.8099975585938000,216.6855926513672000,518.7340698242188000,6.9470868110656740,37.2395896911621100,52,101,53,53,59,12833,2146959643,2147519387,2147293732,2147522112,2147093174,2146917001,2147719936,2147120393,3125,-1,9,8454
1354698178,5806,994.0000000000000000,215.1605072021484400,516.9663696289062000,7.0021471977233890,37.2952308654785160,52,100,54,54,60,12837,2146961700,2147517906,2147293696,2147517778,2147091190,2146923437,2147725897,2147124004,3318,-1,8,44596
1354701778,5807,994.8499755859375000,216.1869964599609400,517.5988769531250000,6.9824490547180180,37.2476005554199200,52,101,54,53,59,12831,2146959104,2147519296,2147295990,2147519497,2147090422,2146917028,2147722294,2147122834,3114,-1,8,17356
1354705378,5807,998.2100219726562000,213.8683013916015600,516.7750854492188000,7.0081028938293460,37.3663902282714840,53,100,53,52,60,12825,2146962267,2147518180,2147295707,2147518262,2147088073,2146923373,2147720960,2147122386,279,0,8,57693
1354708978,5809,995.5100097656250000,215.8892974853515600,518.6893920898438000,6.9484829902648930,37.2840614318847660,52,100,54,53,59,12832,2146958957,2147522532,2147296804,2147515766,2147093357,2146919040,2147725010,2147119725,21,-1,8,19336
1354712578,5806,985.0900268554688000,217.7297058105468800,520.6826782226562000,6.8863692283630370,37.2150611877441400,52,109,53,54,61,12834,2146958601,2147518610,2147294948,2147520274,2147089609,2146919259,2147719405,2147121289,273,-1,8,18003
1354716178,5807,987.0700073242188000,218.0751037597656200,520.5469970703125000,6.8905987739562990,37.1925392150878900,52,103,53,53,60,12833,2146959798,2147517860,2147294582,2147521938,2147089828,2146921728,2147723830,2147120987,322,-1,8,6951
1354716655,5807,865.0000000000000000,218.0628967285156200,520.8027954101562000,6.8826270103454590,37.1979904174804700,52,100,55,54,61,13046,2146960411,2147520000,2147299456,2147521938,2147087149,2146916342,2147722102,2147121600,129,-1,8,13621
